sat.trackr.live / text

‹ back to catalog

STARLINK-11634 [DTC]

NORAD 63673 · 2025-085K

PAYLOAD ACTIVE UNKNOWN

§ Identity

Operator
Country
US
Launch date
2025-04-28
Launch site
AFETR
Launch vehicle
Mass (kg)
RCS (m²)

Purposes: comms

External: N2YO · Heavens-Above · Gunter

§ Orbital elements

Epoch: 2026-09-20T04:45:21.717792Z

Period
91.67 min
Inclination
42.9999°
Eccentricity
0.0001531
Mean motion
15.70843270 rev/d
Perigee alt
355.5 km
Apogee alt
357.5 km
Semi-major
6,734.6 km
B*
1.1074e-3
RAAN
185.9220°
Arg perigee
257.0231°
Mean anomaly
103.0465°
Rev number
8,083

§ Raw data

STARLINK-11634 [DTC]1 63673U 25085K   26263.19816803  .00144155  00000+0  11074-2 0  99942 63673  42.9999 185.9220 0001531 257.0231 103.0465 15.70843270 80831

JSON: /api/v1/satellites/63673 · /tle

For live sub-satellite position, see the globe view (requires WebGL).

§ Visibility from observer

Set your observer location to see the next 7 days of passes ≥ 10°. The values pass through the URL so the page stays shareable.

No JS? Fill the form by hand. The geolocation button needs JavaScript.